Other Public Products
Issued by NWS Grand Forks, ND

Home | Current Version | Previous Version | Text Only | Print | Product List | Glossary On
Versions: 1 2 3 4 5 6 7 8 9 10 11 12 13 14 15 16 17 18 19 20 21 22 23 24 25 26 27 28 29 30 31 32 33 34 35 36 37 38 39 40 41 42 43 44 45 46 47 48 49 50
000
FPUS83 KFGF 240031
OPUFGF
PRAIRIE TO PINES WEATHER ROUNDUP
NATIONAL WEATHER SERVICE EASTERN NORTH DAKOTA/GRAND FORKS ND
700 PM CDT FRI JUN 23 2017

 **SATELLITE DATA USED TO AUGMENT SKY COVER AT AUTOMATED STATIONS**
 *****  WEATHER ACROSS EASTERN NORTH DAKOTA  *****

CITY           SKY/WX    TMP DP  RH WIND       PRES   REMARKS
GRAND FORKS    PTSUNNY   62  42  47 NW20G28   29.93R
6HR MIN TEMP:  62; 6HR MAX TEMP:  67;

GRAND FORKS AF PTSUNNY   61  40  46 N21G31    29.94R
GRAND CITY NWS NOT AVBL
BUXTON           N/A     62  42  47 NW17G30     N/A
DEVILS LAKE    CLOUDY    57  39  51 NW20      30.00R
6HR MIN TEMP:  57; 6HR MAX TEMP:  62;

FARGO          CLOUDY    67  40  37 NW22G30   29.92R
6HR MIN TEMP:  63; 6HR MAX TEMP:  69;

WAHPETON ARPT  FAIR      64  34  32 NW18G25   29.95R
$$

 *****  WEATHER ACROSS CENTRAL AND WESTERN NORTH DAKOTA  *****

CITY           SKY/WX    TMP DP  RH WIND       PRES   REMARKS
JAMESTOWN      FAIR      60  38  43 NW21G32   30.00R
6HR MIN TEMP:  60; 6HR MAX TEMP:  67;

BISMARCK       FAIR      66  34  30 N24G31    30.07R
6HR MIN TEMP:  63; 6HR MAX TEMP:  69;

MINOT          FAIR      62  34  35 NW26G36   30.05S
6HR MIN TEMP:  59; 6HR MAX TEMP:  64;

MINOT AFB      FAIR      62  35  37 NW24G31   30.04S
6HR MIN TEMP:  59; 6HR MAX TEMP:  63;

GARRISON         N/A     60  34  37 NW20G39   30.07R
6HR MIN TEMP:  58; 6HR MAX TEMP:  65;

WILLISTON      CLOUDY    66  32  28 NW17G28   30.12S
6HR MIN TEMP:  64; 6HR MAX TEMP:  70;

DICKINSON      FAIR      65  26  23 NW22G29   30.11R
6HR MIN TEMP:  59; 6HR MAX TEMP:  66;

HETTINGER      FAIR      66  28  24 NW24G32   30.14R
6HR MIN TEMP:  60; 6HR MAX TEMP:  68;

$$

 *****  OTHER OBSERVATIONS NORTHEAST NORTH DAKOTA  *****

CITY           SKY/WX    TMP DP  RH WIND       PRES   REMARKS
WALHALLA       NOT AVBL
LANGDON        CLOUDY    55  41  58 NW21      29.97S
CAVALIER       FAIR      59  41  51 NW17G25   29.93S
GRAFTON        CLOUDY    59  41  51 NW22G29   29.96R
CANDO          NOT AVBL
FORT TOTTEN      N/A     57  40  53 NW12      29.95S
ROLLA            N/A     54  37  54 NW22G30   30.01S
RUGBY          NOT AVBL
 ***** THE ABOVE OBSERVATIONS ARE NON NWS ARE NOT QUALITY
        CONTROLLED AND MAY MIS-REPORT RAIN FOR SNOW...
$$

 *****  OTHER OBSERVATIONS SOUTHEAST NORTH DAKOTA *****

CITY           SKY/WX    TMP DP  RH WIND       PRES   REMARKS
COOPERSTOWN    MOCLDY    59  41  51 NW17G28   29.99R
VALLEY CITY    CLOUDY    61  41  48 NW18G28   30.01R
OAKES          NOT AVBL
GWINNER        MOCLDY    63  39  42 NW16G26   29.99R
SHEYENNE NWR     N/A     65  39  39 NW13      29.95S
BUFFALO          N/A     62  35  36 NW17        N/A
WYNDMERE       NOT AVBL
 ***** THE ABOVE OBSERVATIONS ARE NON NWS ARE NOT QUALITY
       CONTROLLED AND MAY MIS-REPORT RAIN FOR SNOW...
$$

  *****  WEATHER ACROSS NORTHERN MINNESOTA  *****

CITY           SKY/WX    TMP DP  RH WIND       PRES   REMARKS
FLAG ISLAND    CLOUDY    55  52  88 NW20G26   29.83R
WARROAD        CLOUDY    55  50  82 W13G22    29.88R
ROSEAU           N/A     57  48  72 NW16      29.89R
HALLOCK        CLOUDY    61  46  59 NW12      29.91R
THF RVR FALLS  FAIR      60  45  57 NW18      29.91R
6HR MIN TEMP:  57; 6HR MAX TEMP:  61;

HALSTAD          N/A     63  41  44 NW17        N/A
FOSSTON        PTSUNNY   59  46  63 NW15      29.92R
BAUDETTE       CLOUDY    56  50  80 W15G25    29.84R
6HR MIN TEMP:  56; 6HR MAX TEMP:  65; 6HR PCP:  0.13;

WASKISH        CLOUDY    57  50  77 NW15G21   29.87R
CROOKSTON      PTSUNNY   61  43  51 NW18G30   29.93R
$$
  *****  WEATHER ACROSS CENTRAL AND WEST MINNESOTA  *****

CITY           SKY/WX    TMP DP  RH WIND       PRES   REMARKS
BEMIDJI        CLOUDY    57  48  71 NW15      29.90R
PARK RAPIDS    CLOUDY    60  44  55 NW18      29.89R
6HR MIN TEMP:  59; 6HR MAX TEMP:  67; 6HR PCP:  0.03;

WADENA         CLOUDY    61  46  59 NW8       29.91R
DETROIT LAKES  FAIR      63  41  45 NW14G22   29.93R
MOORHEAD       PTSUNNY   66  39  37 NW22      29.94R
FERGUS FALLS   FAIR      64  45  48 NW15      29.91S
ELBOW LAKE     MOCLDY    61  45  54 W16       29.95R
6HR MIN TEMP:  59; 6HR MAX TEMP:  63;

MORRIS MN      FAIR      66  45  45 NW21      29.94R
STAPLES        CLOUDY    61  46  59 NW14      29.90R
WHEATON        PTSUNNY   66  37  34 NW16      29.97R
$$
  *****  WEATHER ELSEWHERE ACROSS MINNESOTA  *****

CITY           SKY/WX    TMP DP  RH WIND       PRES   REMARKS
DULUTH         PTSUNNY   61  52  72 NW13G22   29.77R
6HR MIN TEMP:  60; 6HR MAX TEMP:  70; 6HR PCP: TRACE;

INTRNTL FALLS  CLOUDY    60  52  74 W14G26    29.79R
6HR MIN TEMP:  59; 6HR MAX TEMP:  69; 6HR PCP:  0.01;

ELY            FAIR      63  50  63 W13G21    29.75R
CLOQUET        FAIR      59  54  82 NW6       29.80R
BRAINERD       FAIR      62  47  57 NW21G28   29.87R
6HR MIN TEMP:  58; 6HR MAX TEMP:  67; 6HR PCP:  0.05;

HIBBING        CLOUDY    59  51  75 NW18G26   29.80R
6HR MIN TEMP:  55; 6HR MAX TEMP:  67; 6HR PCP:  0.04;

ALEXANDRIA     PTSUNNY   62  47  57 NW17G24   29.94R
6HR MIN TEMP:  61; 6HR MAX TEMP:  65;

SAINT CLOUD    CLOUDY    67  50  54 NW20G28   29.86R
6HR MIN TEMP:  64; 6HR MAX TEMP:  71; 6HR PCP: TRACE;

MINNEAPOLIS    PTSUNNY   69  50  50 NW17G26   29.84R
6HR MIN TEMP:  68; 6HR MAX TEMP:  74;

$$

  *****  WEATHER ACROSS SOUTH DAKOTA  *****

CITY           SKY/WX    TMP DP  RH WIND       PRES   REMARKS
SIOUX FALLS    FAIR      68  42  38 NW22G28   29.99S
6HR MIN TEMP:  63; 6HR MAX TEMP:  69;

BROOKINGS      FAIR      66  45  46 N15       30.00R
WATERTOWN      FAIR      64  39  39 NW20G26   29.99R
6HR MIN TEMP:  58; 6HR MAX TEMP:  65;

HURON          FAIR      68  40  35 NW17      30.02S
6HR MIN TEMP:  65; 6HR MAX TEMP:  70;

SISSETON         N/A     67  38  34 NW21G29   29.95R
ABERDEEN       FAIR      67  38  34 NW22G30   30.02R
6HR MIN TEMP:  62; 6HR MAX TEMP:  69;

MITCHELL       FAIR      71  37  28 N15G25    30.03S
PIERRE         FAIR      69  32  25 NW17G26   30.08S
6HR MIN TEMP:  65; 6HR MAX TEMP:  71;

MOBRIDGE       FAIR      71  30  21 NW22G30   30.04R
RAPID CITY     FAIR      69  27  20 N22G33    30.17R
6HR MIN TEMP:  65; 6HR MAX TEMP:  70;

$$

  *****  SOME WEATHER IN NEARBY STATES *****

CITY           SKY/WX    TMP DP  RH WIND       PRES   REMARKS
GLASGOW MT     FAIR      68  29  23 NW17G26   30.16S
6HR MIN TEMP:  64; 6HR MAX TEMP:  70;

GREAT FALLS MT PTSUNNY   64  35  34 E10       30.25F
6HR MIN TEMP:  62; 6HR MAX TEMP:  69;

CHEYENNE WY    PTSUNNY   61  42  49 SE10      30.26S
6HR MIN TEMP:  58; 6HR MAX TEMP:  67;

SCOTTSBLUFF NE FAIR      73  31  21 N12G22    30.17S
6HR MIN TEMP:  69; 6HR MAX TEMP:  76;

OMAHA NE       PTSUNNY   74  50  42 NW14      29.99R
6HR MIN TEMP:  70; 6HR MAX TEMP:  78;

DES MOINES IA  FAIR      73  50  44 NW24      29.93R
6HR MIN TEMP:  72; 6HR MAX TEMP:  77;

DAVENPORT IA   FAIR      72  55  55 NW18G29   29.84R
6HR MIN TEMP:  72; 6HR MAX TEMP:  80;

CHICAGO IL     PTSUNNY   79  51  37 W13       29.71R
6HR MIN TEMP:  79; 6HR MAX TEMP:  83;

EAU CLAIRE WI  FAIR      68  50  52 W17       29.79R
6HR MIN TEMP:  67; 6HR MAX TEMP:  73;

LA CROSSE WI   PTSUNNY   75  53  46 W14       29.80R
6HR MIN TEMP:  73; 6HR MAX TEMP:  79;

$$

  *****  SOME NATIONAL WEATHER *****

CITY           SKY/WX    TMP DP  RH WIND       PRES   REMARKS
LA GUARDIA NY  LGT RAIN  80  72  76 S7        29.63S



USA.gov is the U.S. government's official web portal to all federal, state and local government web resources and services.